When you browse on this site, cookies collect data to enhance your experience and personalize the content and advertising you see.
Visit our Privacy Policy to learn more. By continuing to use the site, you agree to this use of cookies and data.
  • In Schweiz
  • Länderverzeichnis
  • Für 7 Tage
  • Wassertemperatur
  • Wetterkarte
  • Widgets
  • user-avatar
    Anmelden

    Stündliche Wetter Kalgoorlie

    Heute, 3 Juni, Mittwoch

    Zeit Temperatur Niederschläge Wind Luftdruck Luftfeuchtigkeit
    00:00 +13°C° 0 mm 4 m/S 738 mmHg 51%
    01:00 +13°C° 0 mm 4 m/S 738 mmHg 52%
    02:00 +12°C° 0 mm 4 m/S 737 mmHg 54%
    03:00 +12°C° 0 mm 4 m/S 737 mmHg 57%
    04:00 +12°C° 0 mm 4 m/S 737 mmHg 59%
    05:00 +11°C° 0 mm 4 m/S 737 mmHg 61%
    06:00 +12°C° 0 mm 4 m/S 738 mmHg 61%
    07:00 +12°C° 0 mm 4 m/S 738 mmHg 61%
    08:00 +13°C° 0 mm 5 m/S 738 mmHg 61%
    09:00 +15°C° 0 mm 5 m/S 738 mmHg 55%
    10:00 +17°C° 0 mm 5 m/S 738 mmHg 48%
    11:00 +20°C° 0 mm 5 m/S 737 mmHg 41%
    12:00 +21°C° 0 mm 5 m/S 737 mmHg 39%
    13:00 +21°C° 0 mm 4 m/S 736 mmHg 36%
    14:00 +22°C° 0 mm 4 m/S 736 mmHg 33%
    15:00 +21°C° 0 mm 3 m/S 736 mmHg 35%
    16:00 +20°C° 0 mm 3 m/S 736 mmHg 37%
    17:00 +19°C° 0 mm 3 m/S 736 mmHg 39%
    18:00 +18°C° 0 mm 3 m/S 736 mmHg 40%
    19:00 +18°C° 0 mm 3 m/S 736 mmHg 42%
    20:00 +17°C° 0 mm 3 m/S 736 mmHg 43%
    21:00 +17°C° 0 mm 3 m/S 736 mmHg 44%
    22:00 +15°C° 0 mm 4 m/S 736 mmHg 46%
    23:00 +15°C° 0 mm 4 m/S 736 mmHg 47%

    Morgen, 4 Juni, Donnerstag

    Zeit Temperatur Niederschläge Wind Luftdruck Luftfeuchtigkeit
    00:00 +14°C° 0 mm 4 m/S 736 mmHg 48%
    01:00 +14°C° 0 mm 4 m/S 736 mmHg 49%
    02:00 +13°C° 0 mm 4 m/S 736 mmHg 50%
    03:00 +13°C° 0 mm 4 m/S 736 mmHg 50%
    04:00 +13°C° 0 mm 4 m/S 736 mmHg 51%
    05:00 +12°C° 0 mm 4 m/S 736 mmHg 51%
    06:00 +13°C° 0 mm 4 m/S 736 mmHg 50%
    07:00 +13°C° 0 mm 3 m/S 736 mmHg 48%
    08:00 +14°C° 0 mm 3 m/S 736 mmHg 47%
    09:00 +17°C° 0 mm 3 m/S 736 mmHg 41%
    10:00 +20°C° 0 mm 4 m/S 737 mmHg 35%
    11:00 +22°C° 0 mm 4 m/S 737 mmHg 29%
    12:00 +23°C° 0 mm 4 m/S 736 mmHg 27%
    13:00 +25°C° 0 mm 3 m/S 735 mmHg 25%
    14:00 +26°C° 0 mm 3 m/S 735 mmHg 24%
    15:00 +24°C° 0 mm 2 m/S 735 mmHg 28%
    16:00 +22°C° 0 mm 1 m/S 735 mmHg 32%
    17:00 +20°C° 0 mm 1 m/S 735 mmHg 36%
    18:00 +20°C° 0 mm 1 m/S 735 mmHg 35%
    19:00 +19°C° 0 mm 2 m/S 735 mmHg 35%
    20:00 +19°C° 0 mm 2 m/S 735 mmHg 34%
    21:00 +18°C° 0 mm 3 m/S 736 mmHg 35%
    22:00 +18°C° 0 mm 3 m/S 736 mmHg 36%
    23:00 +17°C° 0 mm 3 m/S 736 mmHg 37%

    übermorgen, 5 Juni, Freitag

    Zeit Temperatur Niederschläge Wind Luftdruck Luftfeuchtigkeit
    00:00 +17°C° 0 mm 3 m/S 735 mmHg 38%
    01:00 +16°C° 0 mm 3 m/S 735 mmHg 39%
    02:00 +16°C° 0 mm 3 m/S 735 mmHg 41%
    03:00 +14°C° 0 mm 3 m/S 735 mmHg 42%
    04:00 +14°C° 0 mm 3 m/S 735 mmHg 42%
    05:00 +13°C° 0 mm 3 m/S 735 mmHg 43%
    06:00 +14°C° 0 mm 3 m/S 736 mmHg 42%
    07:00 +14°C° 0 mm 3 m/S 736 mmHg 41%
    08:00 +16°C° 0 mm 2 m/S 736 mmHg 40%
    09:00 +18°C° 0 mm 3 m/S 737 mmHg 35%
    10:00 +20°C° 0 mm 3 m/S 737 mmHg 31%
    11:00 +22°C° 0 mm 3 m/S 737 mmHg 26%
    12:00 +24°C° 0 mm 2 m/S 736 mmHg 25%
    13:00 +25°C° 0 mm 2 m/S 736 mmHg 24%
    14:00 +25°C° 0 mm 1 m/S 735 mmHg 23%
    15:00 +24°C° 0 mm 2 m/S 735 mmHg 26%
    16:00 +23°C° 0 mm 2 m/S 735 mmHg 28%
    17:00 +21°C° 0 mm 2 m/S 735 mmHg 30%
    18:00 +20°C° 0 mm 3 m/S 735 mmHg 31%
    19:00 +20°C° 0 mm 3 m/S 735 mmHg 32%
    20:00 +19°C° 0 mm 4 m/S 736 mmHg 33%
    21:00 +19°C° 0 mm 4 m/S 736 mmHg 35%
    22:00 +17°C° 0 mm 5 m/S 736 mmHg 36%
    23:00 +17°C° 0 mm 5 m/S 736 mmHg 38%

    6 Juni, Samstag

    Zeit Temperatur Niederschläge Wind Luftdruck Luftfeuchtigkeit
    00:00 +16°C° 0 mm 5 m/S 736 mmHg 38%
    01:00 +16°C° 0 mm 5 m/S 735 mmHg 38%
    02:00 +16°C° 0 mm 5 m/S 735 mmHg 38%
    03:00 +15°C° 0 mm 4 m/S 735 mmHg 39%
    04:00 +15°C° 0 mm 4 m/S 735 mmHg 40%
    05:00 +14°C° 0 mm 3 m/S 735 mmHg 42%
    06:00 +14°C° 0 mm 4 m/S 736 mmHg 41%
    07:00 +14°C° 0 mm 4 m/S 736 mmHg 41%
    08:00 +14°C° 0 mm 4 m/S 736 mmHg 40%
    09:00 +17°C° 0 mm 4 m/S 736 mmHg 37%
    10:00 +19°C° 0 mm 4 m/S 736 mmHg 33%
    11:00 +20°C° 0 mm 4 m/S 736 mmHg 30%
    12:00 +21°C° 0 mm 4 m/S 736 mmHg 28%
    13:00 +22°C° 0 mm 4 m/S 735 mmHg 27%
    14:00 +22°C° 0 mm 4 m/S 734 mmHg 25%
    15:00 +21°C° 0 mm 4 m/S 734 mmHg 27%
    16:00 +20°C° 0 mm 4 m/S 735 mmHg 28%
    17:00 +19°C° 0 mm 3 m/S 735 mmHg 29%
    18:00 +19°C° 0 mm 4 m/S 735 mmHg 30%
    19:00 +18°C° 0 mm 4 m/S 735 mmHg 32%
    20:00 +16°C° 0 mm 5 m/S 735 mmHg 33%
    21:00 +15°C° 0 mm 5 m/S 735 mmHg 35%
    22:00 +15°C° 0 mm 5 m/S 735 mmHg 37%
    23:00 +14°C° 0 mm 5 m/S 735 mmHg 39%

    7 Juni, Sonntag

    Zeit Temperatur Niederschläge Wind Luftdruck Luftfeuchtigkeit
    00:00 +14°C° 0 mm 5 m/S 735 mmHg 40%
    01:00 +14°C° 0 mm 4 m/S 734 mmHg 41%
    02:00 +13°C° 0 mm 4 m/S 734 mmHg 43%
    03:00 +13°C° 0 mm 4 m/S 734 mmHg 43%
    04:00 +12°C° 0 mm 4 m/S 734 mmHg 44%
    05:00 +12°C° 0 mm 4 m/S 734 mmHg 44%
    06:00 +12°C° 0 mm 4 m/S 734 mmHg 44%
    07:00 +12°C° 0 mm 5 m/S 734 mmHg 43%
    08:00 +13°C° 0 mm 5 m/S 735 mmHg 42%
    09:00 +14°C° 0 mm 5 m/S 735 mmHg 38%
    10:00 +16°C° 0 mm 5 m/S 735 mmHg 33%
    11:00 +19°C° 0 mm 5 m/S 735 mmHg 29%
    12:00 +20°C° 0 mm 4 m/S 734 mmHg 27%
    13:00 +20°C° 0 mm 3 m/S 733 mmHg 26%
    14:00 +20°C° 0 mm 2 m/S 733 mmHg 25%
    15:00 +19°C° 0 mm 2 m/S 733 mmHg 26%
    16:00 +19°C° 0 mm 2 m/S 733 mmHg 28%
    17:00 +18°C° 0 mm 2 m/S 733 mmHg 29%
    18:00 +17°C° 0 mm 3 m/S 734 mmHg 30%
    19:00 +16°C° 0 mm 3 m/S 734 mmHg 31%
    20:00 +14°C° 0 mm 3 m/S 734 mmHg 32%
    21:00 +14°C° 0 mm 4 m/S 734 mmHg 34%
    22:00 +13°C° 0 mm 4 m/S 734 mmHg 36%
    23:00 +13°C° 0 mm 4 m/S 735 mmHg 38%

    8 Juni, Montag

    Zeit Temperatur Niederschläge Wind Luftdruck Luftfeuchtigkeit
    00:00 +12°C° 0 mm 4 m/S 734 mmHg 40%
    01:00 +11°C° 0 mm 4 m/S 734 mmHg 42%
    02:00 +11°C° 0 mm 3 m/S 734 mmHg 44%
    03:00 +11°C° 0 mm 3 m/S 734 mmHg 45%
    04:00 +10°C° 0 mm 3 m/S 734 mmHg 46%
    05:00 +10°C° 0 mm 3 m/S 734 mmHg 47%
    06:00 +10°C° 0 mm 3 m/S 735 mmHg 46%
    07:00 +11°C° 0 mm 3 m/S 735 mmHg 45%
    08:00 +11°C° 0 mm 3 m/S 735 mmHg 44%
    09:00 +13°C° 0 mm 3 m/S 735 mmHg 38%
    10:00 +16°C° 0 mm 3 m/S 735 mmHg 33%
    11:00 +18°C° 0 mm 3 m/S 735 mmHg 27%
    12:00 +19°C° 0 mm 3 m/S 735 mmHg 25%
    13:00 +20°C° 0 mm 3 m/S 734 mmHg 24%
    14:00 +21°C° 0 mm 3 m/S 734 mmHg 22%
    15:00 +19°C° 0 mm 2 m/S 734 mmHg 24%
    16:00 +18°C° 0 mm 2 m/S 734 mmHg 26%
    17:00 +17°C° 0 mm 2 m/S 734 mmHg 28%
    18:00 +16°C° 0 mm 2 m/S 734 mmHg 29%
    19:00 +15°C° 0 mm 2 m/S 735 mmHg 30%
    20:00 +15°C° 0 mm 2 m/S 735 mmHg 31%
    21:00 +13°C° 0 mm 3 m/S 735 mmHg 33%
    22:00 +13°C° 0 mm 3 m/S 735 mmHg 34%
    23:00 +12°C° 0 mm 3 m/S 735 mmHg 36%
    Mehr zeigen